Regional Weather Roundup
Issued by NWS Midland/Odessa, TX

Skip options and go directly to product.
Home | Oldest Version | Previous Version | Current Version | All | Text Only | Save Text | Print | Product List | Glossary On

Skip product version selection by date and time.   
215
ASUS44 KMAF 031501
RWRMAF
MIDLAND AREA WEATHER ROUNDUP
NATIONAL WEATHER SERVICE MIDLAND TX
900 AM CST TUE MAR 03 2015

...IN SOUTHWEST TEXAS AND SOUTHEAST NEW MEXICO...

CITY           SKY/WX    TMP DP  RH WIND       PRES   REMARKS
ALPINE         CLOUDY    58  37  45 SW13      29.99R
ANDREWS        FOG       40  40 100 CALM      29.91R VSB<1/4
ARTESIA        CLOUDY    37  37 100 NE6       29.92R FOG     WCI  33
BIG SPRING     CLOUDY   N/A N/A N/A S6        29.95F VSB 1/2
CARLSBAD       CLOUDY    39  37  92 SE7       29.88S FOG     WCI  34
DRYDEN           N/A     45  43  93 S8        29.94F
FORT STOCKTON  PTSUNNY   42  41  96 CALM      29.90S
GUAD PASS      NOT AVBL
HOBBS          FOG       37  37 100 S5        29.90R VSB 1/4 WCI  34
MARFA          CLOUDY    48  39  71 SE5       29.98S
MIDLAND AIRPK  FOG       45  45 100 S8        29.91F VSB 1/2
MIDLAND INTL   FOG       44  43  96 SE10      29.87F VSB 1/4 WCI  39
ODESSA         FOG       43  42  97 S7        29.90F VSB 1/4 WCI  39
PECOS          FOG       39  38  94 E3        29.90F VSB 3/4
PRESIDIO       FAIR      53  40  62 NW3       29.90F
SEMINOLE       CLOUDY    40  40 100 CALM      29.90F FOG
SNYDER         FOG       40  39  99 SW6       29.95S VSB 1/2 WCI  35
WINK           FOG       43  40  89 E7        29.89S VSB 1/4 WCI  39
$$
...OTHER STATIONS IN TEXAS...

CITY           SKY/WX    TMP DP  RH WIND       PRES   REMARKS
ABILENE        CLOUDY    44  42  93 W9        29.97R WCI  39
AMARILLO       CLOUDY    42  36  79 SW18      29.87R WCI  34
AUSTIN         FOG       43  43 100 CALM      30.02F VSB 1/4
BROWNSVILLE    FOG       60  60 100 CALM      30.03R VSB 1/2
CORPUS CHRISTI DRZL/FOG  55  55 100 NW6       30.01S VSB 1/4
DALLAS FTW     CLOUDY    43  42  97 S6        30.00R FOG     WCI  39
DEL RIO        CLOUDY    50  47  89 SE7       29.99S
EL PASO        LGT RAIN  53  48  83 CALM      29.90R
HOUSTON INT    FOG       61  61 100 E6        30.04S VSB 1/8
LUBBOCK        FOG       39  38  96 NW3       29.91S VSB 1
SAN ANGELO     CLOUDY    43  41  93 CALM      29.95R FOG
SAN ANTONIO    DRZL/FOG  50  49  96 E3        30.01S VSB 1/2
WACO           FOG       41  41 100 CALM      30.02S VSB 1/2
WICHITA FALLS  NOT AVBL
$$
...OTHER LOCATIONS IN NEW MEXICO...

CITY           SKY/WX    TMP DP  RH WIND       PRES   REMARKS
ALAMAGORDO     LGT RAIN  50  50 100 CALM      29.91R VSB 1
ALBUQUERQUE    PTSUNNY   40  28  62 N10       29.92F WCI  33
CANNON AFB     CLOUDY    37  36  96 W5        29.89S WCI  33
CLOVIS         CLOUDY    36  34  93 W6        29.89F WCI  31
HOLLOMAN AFB   LGT RAIN  51  51 100 W7        29.91R FOG
ROSWELL        FOG       37  36  96 N8        29.91R VSB 1/4 WCI  31
RUIDOSO        PTSUNNY   39  37  93 E3        29.93S
SANTA FE       MOSUNNY   35  27  72 S8        29.90S WCI  29
TRUTH OR CONSE LGT RAIN  43  40  89 N5        29.92R
TUCUMCARI      PTSUNNY   43  33  68 SW9       29.86R WCI  38
$$

USA.gov is the U.S. government's official web portal to all federal, state and local government web resources and services.